Location: Casilda
(33.0440°S, 61.1680°W)
Time: 12:21:11
(UTC-03:00)

ISS - Pass Details

Date: 26 May 2020
Orbit: 417 x 420 km, 51.6° (Epoch: 26 May)

Event Time Altitude Azimuth Distance (km) Brightness Sun altitude
Exits shadow 06:24:45 14° 176° (S) 1,311 -1.4 -18.9°
Drops below altitude 10° 06:25:33 10° 166° (SSE) 1,525 -0.9 -18.7°
Sets 06:28:05 0° 147° (SSE) 2,395 0.3 -18.2°
